QPF
0.00 0.00 0.00 0.00 0.00 0.00 0.00 0.00 0.00 0.01 0.01 0.02 0.02 0.02 0.02 0.01 0.01 0.02 0.04 0.04 0.04 0.04 0.05 0.05 0.04 0.04 0.04 0.04 0.05 0.05 0.08 0.09 0.08 0.05 0.05 0.05 0.05 0.05 0.07 0.07 0.07 0.08 0.09
0.00 0.00 0.00 0.00 0.00 0.00 0.00 0.00 0.00 0.00 0.01 0.01 0.02 0.01 0.01 0.01 0.01 0.01 0.03 0.03 0.05 0.05 0.04 0.05 0.05 0.04 0.04 0.04 0.05 0.07 0.07 0.06 0.06 0.06 0.06 0.05 0.05 0.04 0.06 0.08 0.08 0.09 0.10
0.00 0.00 0.00 0.00 0.00 0.00 0.00 0.00 0.00 0.00 0.00 0.00 0.00 0.01 0.01 0.01 0.01 0.01 0.01 0.02 0.04 0.04 0.06 0.06 0.06 0.06 0.04 0.04 0.05 0.06 0.05 0.05 0.06 0.07 0.07 0.06 0.05 0.04 0.05 0.06 0.06 0.07 0.08
0.00 0.00 0.00 0.00 0.00 0.00 0.00 0.00 0.00 0.00 0.00 0.00 0.01 0.01 0.02 0.02 0.02 0.01 0.02 0.02 0.03 0.03 0.06 0.09 0.10 0.08 0.04 0.05 0.04 0.05 0.06 0.06 0.05 0.08 0.08 0.06 0.06 0.06 0.04 0.04 0.04 0.05 0.07
0.00 0.00 0.00 0.00 0.00 0.00 0.00 0.00 0.00 0.00 0.00 0.00 0.01 0.01 0.01 0.02 0.01 0.01 0.02 0.02 0.04 0.05 0.06 0.08 0.08 0.08 0.07 0.05 0.05 0.06 0.06 0.04 0.05 0.07 0.08 0.08 0.07 0.08 0.06 0.05 0.04 0.04 0.06
0.00 0.00 0.00 0.00 0.00 0.00 0.00 0.00 0.00 0.00 0.00 0.01 0.01 0.00 0.01 0.01 0.01 0.01 0.01 0.02 0.02 0.03 0.04 0.04 0.07 0.09 0.08 0.06 0.06 0.06 0.07 0.07 0.07 0.08 0.10 0.10 0.08 0.07 0.06 0.05 0.05 0.04 0.04
0.01 0.00 0.00 0.00 0.00 0.00 0.00 0.00 0.00 0.00 0.01 0.01 0.01 0.01 0.01 0.01 0.01 0.01 0.02 0.02 0.03 0.02 0.01 0.03 0.06 0.07 0.05 0.04 0.05 0.05 0.04 0.05 0.06 0.08 0.08 0.09 0.08 0.07 0.08 0.07 0.05 0.05 0.04
0.01 0.00 0.00 0.00 0.00 0.00 0.00 0.00 0.00 0.00 0.01 0.01 0.01 0.01 0.02 0.02 0.02 0.02 0.02 0.02 0.01 0.01 0.01 0.02 0.04 0.04 0.04 0.03 0.04 0.04 0.04 0.04 0.05 0.05 0.06 0.07 0.07 0.09 0.10 0.07 0.06 0.05 0.05
0.01 0.00 0.00 0.00 0.00 0.00 0.00 0.00 0.00 0.01 0.01 0.01 0.01 0.01 0.02 0.02 0.03 0.02 0.01 0.01 0.01 0.01 0.01 0.02 0.03 0.03 0.03 0.03 0.03 0.04 0.03 0.04 0.04 0.04 0.05 0.05 0.06 0.09 0.10 0.09 0.07 0.07 0.06
0.01 0.01 0.01 0.01 0.01 0.01 0.01 0.01 0.01 0.01 0.01 0.01 0.01 0.01 0.02 0.02 0.02 0.02 0.01 0.01 0.01 0.01 0.01 0.02 0.02 0.01 0.01 0.01 0.02 0.03 0.03 0.04 0.03 0.03 0.04 0.03 0.04 0.05 0.06 0.06 0.05 0.05 0.05
0.03 0.02 0.01 0.02 0.02 0.03 0.04 0.02 0.01 0.01 0.00 0.00 0.01 0.01 0.01 0.02 0.02 0.03 0.01 0.01 0.01 0.01 0.01 0.01 0.01 0.01 0.00 0.01 0.01 0.02 0.03 0.04 0.04 0.03 0.02 0.02 0.03 0.03 0.03 0.03 0.04 0.05 0.05
0.01 0.00 0.00 0.00 0.01 0.03 0.05 0.02 0.01 0.01 0.00 0.00 0.00 0.01 0.01 0.01 0.01 0.04 0.02 0.01 0.01 0.00 0.01 0.01 0.01 0.00 0.00 0.00 0.01 0.01 0.02 0.03 0.04 0.03 0.02 0.02 0.03 0.03 0.03 0.03 0.04 0.04 0.04
0.01 0.00 0.00 0.00 0.01 0.03 0.05 0.04 0.01 0.01 0.01 0.01 0.01 0.01 0.01 0.01 0.01 0.02 0.01 0.00 0.00 0.00 0.01 0.01 0.01 0.00 0.00 0.00 0.00 0.00 0.01 0.01 0.02 0.03 0.03 0.03 0.03 0.03 0.04 0.05 0.05 0.05 0.04
0.01 0.01 0.01 0.00 0.00 0.01 0.02 0.02 0.02 0.02 0.02 0.04 0.04 0.02 0.01 0.01 0.01 0.00 0.00 0.00 0.01 0.01 0.01 0.01 0.01 0.01 0.00 0.00 0.00 0.01 0.02 0.02 0.02 0.02 0.02 0.02 0.03 0.03 0.04 0.05 0.04 0.04 0.04
0.02 0.03 0.03 0.00 0.00 0.01 0.01 0.02 0.03 0.03 0.02 0.02 0.02 0.01 0.02 0.02 0.02 0.01 0.01 0.01 0.01 0.01 0.01 0.02 0.02 0.01 0.01 0.01 0.01 0.01 0.03 0.03 0.02 0.01 0.01 0.01 0.02 0.03 0.04 0.05 0.05 0.05 0.04
0.00 0.01 0.01 0.01 0.01 0.01 0.01 0.01 0.02 0.01 0.01 0.01 0.01 0.01 0.01 0.02 0.02 0.02 0.02 0.01 0.01 0.01 0.02 0.02 0.02 0.01 0.01 0.02 0.02 0.03 0.03 0.02 0.01 0.01 0.01 0.01 0.03 0.03 0.03 0.05 0.06 0.05 0.05
0.01 0.01 0.01 0.02 0.02 0.01 0.01 0.01 0.01 0.01 0.01 0.02 0.01 0.00 0.01 0.01 0.02 0.02 0.03 0.02 0.02 0.02 0.02 0.01 0.02 0.01 0.01 0.02 0.03 0.03 0.03 0.02 0.01 0.01 0.01 0.01 0.02 0.03 0.03 0.04 0.05 0.04 0.04
0.01 0.01 0.01 0.01 0.01 0.01 0.01 0.01 0.01 0.02 0.01 0.01 0.02 0.01 0.01 0.01 0.02 0.02 0.02 0.02 0.01 0.02 0.01 0.01 0.02 0.01 0.01 0.02 0.02 0.03 0.02 0.01 0.01 0.01 0.02 0.02 0.02 0.02 0.02 0.01 0.01 0.02 0.02
0.01 0.01 0.01 0.01 0.01 0.01 0.01 0.01 0.01 0.02 0.01 0.01 0.02 0.03 0.02 0.01 0.01 0.01 0.01 0.02 0.02 0.01 0.01 0.01 0.01 0.01 0.01 0.02 0.02 0.03 0.02 0.01 0.01 0.03 0.03 0.02 0.02 0.02 0.01 0.01 0.01 0.01 0.01
0.01 0.01 0.01 0.01 0.02 0.02 0.02 0.02 0.01 0.02 0.02 0.02 0.02 0.02 0.03 0.02 0.02 0.02 0.02 0.03 0.02 0.01 0.01 0.00 0.01 0.02 0.01 0.01 0.02 0.02 0.01 0.01 0.01 0.02 0.01 0.02 0.01 0.01 0.01 0.01 0.00 0.00 0.00
0.01 0.01 0.01 0.01 0.02 0.02 0.02 0.02 0.02 0.01 0.02 0.03 0.03 0.03 0.04 0.05 0.05 0.06 0.04 0.03 0.02 0.01 0.01 0.02 0.03 0.02 0.01 0.02 0.02 0.02 0.02 0.02 0.02 0.01 0.01 0.01 0.01 0.01 0.01 0.01 0.01 0.01 0.01
0.01 0.01 0.01 0.01 0.01 0.02 0.02 0.02 0.01 0.01 0.02 0.03 0.04 0.04 0.05 0.06 0.06 0.07 0.04 0.04 0.04 0.03 0.04 0.04 0.03 0.02 0.02 0.04 0.04 0.04 0.04 0.03 0.02 0.01 0.00 0.00 0.00 0.01 0.01 0.01 0.01 0.01 0.01
0.01 0.02 0.01 0.01 0.01 0.01 0.02 0.02 0.02 0.02 0.03 0.03 0.04 0.06 0.05 0.05 0.06 0.06 0.05 0.07 0.06 0.05 0.05 0.04 0.03 0.03 0.03 0.04 0.04 0.04 0.03 0.03 0.01 0.00 0.00 0.00 0.00 0.00 0.00 0.00 0.00 0.00 0.00
0.01 0.02 0.01 0.01 0.01 0.01 0.01 0.01 0.02 0.03 0.03 0.03 0.04 0.05 0.04 0.03 0.05 0.06 0.06 0.07 0.07 0.06 0.05 0.04 0.04 0.05 0.06 0.05 0.05 0.03 0.02 0.02 0.01 0.00 0.01 0.01 0.01 0.01 0.01 0.01 0.00 0.00 0.00
0.02 0.02 0.02 0.01 0.01 0.01 0.01 0.01 0.02 0.03 0.03 0.03 0.03 0.04 0.04 0.03 0.04 0.05 0.05 0.05 0.07 0.07 0.06 0.06 0.07 0.08 0.07 0.06 0.05 0.04 0.03 0.03 0.03 0.03 0.02 0.02 0.01 0.01 0.01 0.01 0.01 0.01 0.00
0.05 0.03 0.02 0.01 0.01 0.01 0.01 0.02 0.02 0.03 0.03 0.03 0.04 0.04 0.03 0.04 0.04 0.05 0.05 0.05 0.07 0.09 0.10 0.12 0.11 0.08 0.06 0.04 0.03 0.03 0.03 0.03 0.02 0.02 0.02 0.01 0.01 0.00 0.00 0.01 0.01 0.01 0.01
MSLP
1018.58 1018.59 1018.48 1018.26 1017.96 1017.61 1017.28 1017.02 1016.84 1016.77 1016.79 1016.85 1016.94 1017.01 1017.03 1017.01 1016.95 1016.86 1016.78 1016.73 1016.70 1016.71 1016.76 1016.81 1016.87 1016.93 1016.97 1017.01 1017.06 1017.14 1017.24 1017.39 1017.57 1017.79 1018.04 1018.30 1018.57 1018.83 1019.05 1019.21 1019.30 1019.27 1019.10
1018.97 1019.04 1018.98 1018.77 1018.44 1018.05 1017.65 1017.32 1017.11 1017.04 1017.09 1017.23 1017.40 1017.56 1017.66 1017.68 1017.62 1017.51 1017.37 1017.24 1017.14 1017.09 1017.09 1017.14 1017.20 1017.27 1017.32 1017.37 1017.40 1017.44 1017.50 1017.61 1017.76 1017.98 1018.26 1018.58 1018.93 1019.30 1019.63 1019.89 1020.05 1020.06 1019.89
1019.30 1019.43 1019.43 1019.25 1018.93 1018.51 1018.08 1017.71 1017.48 1017.40 1017.48 1017.68 1017.93 1018.17 1018.34 1018.41 1018.36 1018.23 1018.04 1017.83 1017.67 1017.55 1017.51 1017.52 1017.57 1017.62 1017.66 1017.67 1017.66 1017.63 1017.63 1017.66 1017.76 1017.95 1018.23 1018.59 1019.02 1019.49 1019.94 1020.33 1020.60 1020.70 1020.59
1019.52 1019.72 1019.78 1019.67 1019.38 1018.98 1018.53 1018.14 1017.89 1017.81 1017.92 1018.15 1018.47 1018.77 1019.00 1019.11 1019.09 1018.94 1018.71 1018.46 1018.23 1018.06 1017.97 1017.94 1017.95 1017.97 1017.97 1017.94 1017.86 1017.76 1017.67 1017.61 1017.64 1017.78 1018.04 1018.42 1018.90 1019.46 1020.02 1020.54 1020.94 1021.17 1021.19
1019.60 1019.87 1020.02 1019.98 1019.76 1019.39 1018.97 1018.57 1018.31 1018.23 1018.34 1018.60 1018.94 1019.29 1019.57 1019.72 1019.71 1019.57 1019.33 1019.05 1018.78 1018.57 1018.43 1018.37 1018.34 1018.33 1018.29 1018.20 1018.06 1017.88 1017.70 1017.57 1017.51 1017.58 1017.80 1018.17 1018.68 1019.28 1019.93 1020.56 1021.09 1021.47 1021.64
1019.55 1019.89 1020.12 1020.18 1020.04 1019.74 1019.35 1018.97 1018.70 1018.61 1018.71 1018.97 1019.32 1019.69 1020.00 1020.17 1020.19 1020.07 1019.83 1019.55 1019.26 1019.03 1018.86 1018.77 1018.72 1018.68 1018.61 1018.48 1018.30 1018.07 1017.82 1017.61 1017.49 1017.49 1017.65 1017.98 1018.47 1019.08 1019.77 1020.47 1021.10 1021.61 1021.93
1019.39 1019.78 1020.11 1020.27 1020.22 1019.99 1019.65 1019.30 1019.03 1018.93 1019.00 1019.24 1019.58 1019.95 1020.26 1020.46 1020.50 1020.40 1020.18 1019.91 1019.63 1019.40 1019.23 1019.12 1019.07 1019.02 1018.94 1018.80 1018.60 1018.35 1018.07 1017.81 1017.63 1017.58 1017.67 1017.94 1018.37 1018.94 1019.62 1020.33 1021.01 1021.61 1022.07
1019.14 1019.59 1020.00 1020.25 1020.29 1020.14 1019.86 1019.54 1019.29 1019.17 1019.22 1019.42 1019.74 1020.08 1020.39 1020.60 1020.66 1020.58 1020.39 1020.15 1019.89 1019.67 1019.51 1019.42 1019.37 1019.33 1019.26 1019.15 1018.97 1018.73 1018.45 1018.19 1017.98 1017.88 1017.91 1018.10 1018.45 1018.94 1019.54 1020.21 1020.89 1021.53 1022.07
1018.84 1019.34 1019.81 1020.14 1020.27 1020.19 1019.97 1019.70 1019.46 1019.33 1019.36 1019.53 1019.81 1020.13 1020.43 1020.63 1020.71 1020.66 1020.50 1020.29 1020.06 1019.87 1019.73 1019.66 1019.63 1019.62 1019.59 1019.51 1019.38 1019.19 1018.95 1018.71 1018.51 1018.38 1018.36 1018.47 1018.71 1019.09 1019.59 1020.17 1020.79 1021.41 1021.99
1018.52 1019.05 1019.56 1019.94 1020.13 1020.12 1019.96 1019.74 1019.53 1019.41 1019.43 1019.59 1019.84 1020.14 1020.41 1020.62 1020.71 1020.68 1020.56 1020.38 1020.19 1020.03 1019.92 1019.86 1019.86 1019.88 1019.90 1019.88 1019.81 1019.68 1019.51 1019.33 1019.15 1019.02 1018.96 1019.00 1019.15 1019.41 1019.78 1020.24 1020.77 1021.32 1021.88
1018.20 1018.73 1019.25 1019.65 1019.87 1019.91 1019.81 1019.64 1019.48 1019.39 1019.43 1019.58 1019.83 1020.12 1020.39 1020.60 1020.71 1020.71 1020.62 1020.48 1020.33 1020.20 1020.11 1020.08 1020.10 1020.14 1020.19 1020.22 1020.22 1020.17 1020.07 1019.95 1019.83 1019.72 1019.65 1019.64 1019.71 1019.86 1020.11 1020.44 1020.84 1021.30 1021.80
1017.88 1018.39 1018.88 1019.26 1019.48 1019.55 1019.49 1019.38 1019.28 1019.25 1019.33 1019.51 1019.77 1020.07 1020.36 1020.58 1020.72 1020.76 1020.72 1020.62 1020.50 1020.40 1020.34 1020.32 1020.35 1020.41 1020.48 1020.55 1020.59 1020.60 1020.58 1020.53 1020.46 1020.39 1020.33 1020.30 1020.32 1020.39 1020.53 1020.74 1021.03 1021.39 1021.80
1017.55 1018.01 1018.44 1018.76 1018.96 1019.02 1019.00 1018.95 1018.92 1018.96 1019.10 1019.33 1019.63 1019.96 1020.28 1020.54 1020.72 1020.81 1020.82 1020.78 1020.71 1020.64 1020.60 1020.60 1020.63 1020.69 1020.76 1020.84 1020.91 1020.96 1020.99 1021.00 1020.99 1020.97 1020.94 1020.92 1020.92 1020.94 1021.01 1021.13 1021.31 1021.57 1021.89
1017.23 1017.60 1017.92 1018.16 1018.30 1018.35 1018.35 1018.35 1018.38 1018.50 1018.71 1019.01 1019.37 1019.74 1020.10 1020.41 1020.65 1020.80 1020.88 1020.91 1020.90 1020.89 1020.88 1020.89 1020.92 1020.97 1021.03 1021.10 1021.16 1021.23 1021.29 1021.34 1021.38 1021.41 1021.43 1021.44 1021.44 1021.45 1021.48 1021.54 1021.65 1021.82 1022.05
1016.90 1017.16 1017.37 1017.50 1017.57 1017.58 1017.58 1017.61 1017.71 1017.89 1018.17 1018.53 1018.94 1019.36 1019.77 1020.14 1020.44 1020.67 1020.83 1020.94 1021.01 1021.06 1021.10 1021.14 1021.17 1021.21 1021.25 1021.29 1021.34 1021.40 1021.46 1021.54 1021.62 1021.69 1021.76 1021.81 1021.85 1021.87 1021.89 1021.93 1021.99 1022.09 1022.24
1016.60 1016.74 1016.82 1016.84 1016.81 1016.78 1016.77 1016.81 1016.95 1017.18 1017.50 1017.89 1018.34 1018.80 1019.25 1019.66 1020.02 1020.33 1020.59 1020.80 1020.97 1021.10 1021.21 1021.28 1021.34 1021.37 1021.39 1021.41 1021.43 1021.46 1021.52 1021.60 1021.70 1021.81 1021.93 1022.03 1022.11 1022.17 1022.21 1022.24 1022.28 1022.33 1022.41
1016.34 1016.36 1016.32 1016.23 1016.12 1016.03 1015.99 1016.04 1016.18 1016.42 1016.75 1017.15 1017.60 1018.06 1018.53 1018.97 1019.39 1019.77 1020.12 1020.43 1020.70 1020.93 1021.12 1021.26 1021.35 1021.40 1021.41 1021.41 1021.40 1021.41 1021.45 1021.53 1021.64 1021.79 1021.94 1022.10 1022.23 1022.34 1022.41 1022.46 1022.49 1022.51 1022.54
1016.15 1016.07 1015.93 1015.75 1015.57 1015.43 1015.36 1015.38 1015.50 1015.71 1016.01 1016.37 1016.78 1017.21 1017.65 1018.10 1018.55 1018.98 1019.40 1019.81 1020.18 1020.52 1020.80 1021.01 1021.16 1021.24 1021.26 1021.26 1021.24 1021.23 1021.26 1021.34 1021.47 1021.64 1021.83 1022.03 1022.22 1022.38 1022.49 1022.56 1022.60 1022.62 1022.62
1016.03 1015.89 1015.68 1015.44 1015.21 1015.03 1014.92 1014.90 1014.97 1015.13 1015.36 1015.64 1015.97 1016.33 1016.72 1017.13 1017.57 1018.03 1018.51 1018.98 1019.45 1019.88 1020.25 1020.54 1020.75 1020.88 1020.94 1020.95 1020.94 1020.94 1020.98 1021.07 1021.21 1021.40 1021.63 1021.87 1022.10 1022.31 1022.47 1022.58 1022.65 1022.67 1022.67
1015.98 1015.80 1015.57 1015.31 1015.06 1014.85 1014.71 1014.65 1014.66 1014.73 1014.86 1015.03 1015.25 1015.51 1015.81 1016.16 1016.56 1017.01 1017.51 1018.03 1018.55 1019.05 1019.50 1019.87 1020.15 1020.34 1020.45 1020.51 1020.53 1020.56 1020.62 1020.73 1020.89 1021.11 1021.37 1021.65 1021.93 1022.18 1022.39 1022.54 1022.64 1022.69 1022.71
1015.96 1015.79 1015.56 1015.31 1015.07 1014.86 1014.70 1014.59 1014.54 1014.52 1014.54 1014.59 1014.68 1014.82 1015.01 1015.27 1015.61 1016.03 1016.51 1017.04 1017.59 1018.14 1018.64 1019.07 1019.41 1019.66 1019.84 1019.95 1020.03 1020.11 1020.21 1020.36 1020.56 1020.81 1021.11 1021.42 1021.73 1022.02 1022.26 1022.46 1022.61 1022.70 1022.76
1015.93 1015.79 1015.60 1015.39 1015.18 1014.99 1014.82 1014.68 1014.56 1014.46 1014.38 1014.32 1014.29 1014.30 1014.38 1014.55 1014.80 1015.16 1015.60 1016.11 1016.65 1017.21 1017.73 1018.20 1018.59 1018.91 1019.15 1019.33 1019.48 1019.63 1019.79 1020.00 1020.24 1020.53 1020.85 1021.19 1021.52 1021.84 1022.12 1022.36 1022.55 1022.69 1022.81
1015.85 1015.76 1015.62 1015.47 1015.31 1015.15 1014.99 1014.83 1014.66 1014.50 1014.33 1014.17 1014.03 1013.94 1013.92 1013.99 1014.16 1014.45 1014.82 1015.28 1015.79 1016.33 1016.85 1017.33 1017.76 1018.13 1018.43 1018.69 1018.93 1019.15 1019.39 1019.65 1019.94 1020.27 1020.61 1020.96 1021.31 1021.64 1021.93 1022.20 1022.44 1022.64 1022.82
1015.69 1015.64 1015.57 1015.47 1015.36 1015.24 1015.09 1014.93 1014.74 1014.52 1014.30 1014.07 1013.86 1013.69 1013.59 1013.58 1013.68 1013.89 1014.19 1014.59 1015.04 1015.53 1016.03 1016.51 1016.95 1017.36 1017.73 1018.06 1018.38 1018.69 1019.00 1019.32 1019.66 1020.02 1020.37 1020.73 1021.07 1021.39 1021.69 1021.97 1022.24 1022.48 1022.72
1015.42 1015.42 1015.39 1015.35 1015.28 1015.18 1015.06 1014.89 1014.69 1014.46 1014.20 1013.94 1013.69 1013.48 1013.33 1013.27 1013.30 1013.44 1013.67 1013.99 1014.38 1014.82 1015.27 1015.73 1016.19 1016.62 1017.04 1017.44 1017.84 1018.22 1018.61 1019.00 1019.38 1019.75 1020.11 1020.45 1020.77 1021.07 1021.35 1021.63 1021.90 1022.18 1022.46
1015.06 1015.07 1015.08 1015.06 1015.02 1014.95 1014.83 1014.68 1014.48 1014.24 1013.98 1013.71 1013.45 1013.22 1013.06 1012.96 1012.95 1013.04 1013.21 1013.46 1013.78 1014.15 1014.56 1014.99 1015.44 1015.89 1016.35 1016.81 1017.28 1017.73 1018.18 1018.62 1019.03 1019.41 1019.76 1020.08 1020.36 1020.62 1020.87 1021.13 1021.39 1021.68 1022.00
Thickness
5805 5805 5803 5800 5796 5792 5788 5786 5783 5781 5779 5775 5772 5769 5767 5768 5768 5768 5767 5767 5765 5763 5761 5760 5759 5757 5755 5753 5753 5750 5747 5746 5746 5741 5738 5739 5741 5741 5741 5740 5738 5737 5735
5805 5805 5803 5802 5798 5794 5791 5789 5786 5784 5781 5779 5776 5773 5771 5769 5769 5768 5767 5766 5765 5764 5763 5760 5758 5756 5754 5752 5751 5749 5746 5744 5745 5739 5733 5729 5730 5734 5738 5736 5735 5734 5732
5809 5807 5806 5804 5801 5798 5795 5793 5789 5787 5784 5782 5778 5775 5772 5769 5767 5766 5765 5766 5765 5764 5762 5760 5758 5756 5754 5751 5750 5749 5746 5742 5743 5742 5735 5727 5722 5725 5729 5731 5731 5730 5729
5816 5813 5810 5807 5805 5803 5801 5797 5793 5790 5787 5784 5780 5775 5769 5765 5766 5766 5765 5765 5764 5763 5761 5759 5758 5756 5754 5752 5751 5750 5747 5744 5740 5740 5739 5736 5732 5723 5720 5723 5725 5726 5724
5822 5819 5817 5814 5812 5809 5805 5801 5796 5793 5790 5787 5783 5777 5772 5770 5768 5767 5765 5763 5763 5762 5761 5759 5757 5755 5753 5752 5750 5748 5747 5744 5741 5738 5737 5734 5732 5728 5720 5715 5717 5718 5719
5828 5825 5823 5818 5814 5812 5808 5803 5798 5794 5792 5788 5784 5779 5774 5771 5767 5765 5763 5761 5761 5760 5759 5758 5756 5754 5753 5751 5749 5748 5746 5744 5741 5739 5736 5733 5729 5726 5721 5715 5712 5711 5712
5831 5826 5822 5818 5815 5812 5809 5806 5800 5796 5793 5789 5785 5781 5777 5773 5769 5766 5763 5761 5759 5758 5757 5757 5755 5753 5752 5750 5748 5746 5744 5742 5740 5737 5735 5733 5731 5729 5724 5718 5711 5708 5707
5834 5830 5827 5823 5820 5816 5812 5807 5802 5798 5794 5790 5786 5783 5779 5774 5771 5768 5765 5762 5760 5759 5758 5756 5754 5752 5750 5748 5746 5744 5742 5740 5737 5736 5733 5731 5730 5728 5724 5719 5712 5705 5701
5837 5834 5831 5827 5823 5818 5815 5811 5805 5800 5795 5791 5787 5782 5779 5775 5772 5769 5766 5763 5761 5759 5757 5755 5752 5751 5749 5747 5744 5741 5738 5736 5734 5732 5731 5728 5726 5725 5723 5720 5715 5707 5697
5839 5837 5833 5830 5826 5822 5818 5814 5809 5803 5798 5793 5788 5784 5779 5776 5773 5769 5766 5763 5760 5758 5756 5753 5751 5748 5747 5744 5741 5739 5736 5733 5731 5729 5727 5725 5723 5721 5719 5717 5713 5709 5702
5839 5836 5835 5832 5828 5823 5819 5814 5809 5803 5798 5793 5788 5784 5779 5776 5772 5769 5766 5763 5760 5757 5754 5751 5748 5746 5743 5741 5738 5735 5733 5730 5728 5726 5724 5721 5719 5717 5715 5713 5710 5706 5701
5839 5837 5834 5831 5826 5822 5818 5814 5809 5804 5799 5794 5789 5784 5779 5775 5771 5768 5765 5762 5759 5756 5752 5749 5746 5743 5740 5738 5735 5732 5730 5727 5724 5722 5720 5718 5717 5714 5711 5708 5705 5701 5698
5835 5833 5831 5827 5824 5821 5817 5813 5808 5803 5799 5794 5788 5783 5778 5774 5770 5767 5764 5761 5757 5753 5750 5747 5743 5740 5737 5735 5732 5729 5727 5724 5721 5720 5717 5715 5713 5709 5707 5704 5701 5697 5694
5832 5829 5826 5824 5822 5820 5817 5812 5808 5804 5799 5793 5787 5782 5778 5775 5771 5767 5763 5759 5755 5751 5748 5744 5741 5738 5735 5732 5729 5727 5723 5720 5718 5717 5715 5712 5709 5706 5703 5700 5696 5693 5688
5827 5826 5823 5821 5820 5817 5814 5811 5807 5803 5798 5792 5786 5782 5779 5775 5770 5765 5761 5758 5754 5750 5746 5742 5738 5735 5733 5730 5727 5724 5721 5717 5715 5713 5712 5710 5708 5705 5701 5698 5693 5690 5684
5824 5824 5822 5820 5818 5816 5812 5809 5805 5801 5796 5790 5785 5782 5777 5772 5768 5763 5759 5755 5750 5747 5743 5739 5735 5732 5730 5728 5725 5722 5718 5715 5712 5709 5708 5706 5703 5701 5698 5695 5692 5689 5683
5823 5821 5820 5819 5817 5815 5812 5807 5803 5799 5793 5788 5783 5779 5775 5769 5765 5762 5757 5752 5747 5743 5739 5736 5733 5730 5728 5725 5722 5719 5715 5712 5708 5706 5703 5702 5699 5696 5693 5690 5687 5684 5681
5822 5821 5820 5818 5816 5814 5810 5806 5801 5795 5789 5784 5781 5777 5772 5767 5763 5758 5754 5749 5745 5741 5737 5734 5731 5727 5725 5723 5720 5716 5712 5708 5705 5702 5700 5696 5693 5691 5687 5684 5680 5677 5674
5824 5821 5820 5818 5814 5810 5806 5801 5795 5791 5785 5781 5778 5775 5770 5765 5760 5755 5751 5747 5742 5738 5735 5732 5728 5724 5722 5720 5717 5713 5708 5704 5701 5698 5696 5693 5689 5686 5683 5679 5674 5670 5668
5821 5818 5817 5814 5809 5806 5802 5795 5790 5785 5781 5779 5776 5773 5768 5763 5758 5754 5750 5745 5741 5737 5733 5729 5726 5723 5719 5718 5715 5711 5705 5700 5696 5693 5691 5689 5686 5682 5679 5674 5669 5664 5661
5816 5814 5810 5806 5804 5802 5797 5789 5785 5781 5781 5778 5773 5769 5765 5761 5756 5751 5747 5743 5738 5733 5729 5725 5723 5720 5718 5715 5712 5708 5702 5697 5692 5688 5686 5684 5681 5678 5674 5670 5666 5662 5658
5808 5806 5802 5798 5798 5796 5790 5784 5780 5780 5777 5773 5768 5764 5761 5758 5753 5747 5743 5739 5734 5729 5725 5721 5718 5716 5714 5712 5708 5704 5700 5696 5689 5685 5682 5680 5677 5673 5669 5665 5662 5658 5654
5800 5799 5795 5790 5789 5788 5785 5778 5776 5775 5771 5766 5762 5759 5757 5753 5749 5743 5738 5733 5729 5724 5721 5717 5714 5711 5709 5707 5703 5699 5696 5692 5687 5683 5679 5676 5672 5668 5664 5661 5657 5653 5648
5793 5790 5787 5782 5779 5779 5778 5775 5772 5770 5765 5760 5757 5753 5750 5746 5742 5738 5734 5729 5725 5720 5717 5713 5710 5707 5704 5701 5698 5694 5690 5686 5682 5678 5674 5670 5666 5662 5658 5655 5651 5647 5643
5784 5782 5779 5775 5772 5771 5769 5769 5766 5763 5758 5754 5750 5747 5744 5740 5736 5732 5729 5726 5723 5720 5716 5713 5709 5704 5700 5699 5696 5691 5687 5682 5678 5672 5667 5662 5657 5653 5650 5647 5644 5640 5637
5774 5771 5769 5767 5765 5764 5762 5761 5759 5757 5752 5747 5744 5741 5738 5735 5731 5726 5722 5721 5719 5717 5714 5712 5708 5705 5702 5698 5692 5688 5684 5679 5674 5667 5662 5657 5654 5650 5646 5642 5638 5635 5631